Wind_Speed
28 28 28 28 27 26 26 27 26 25 24 23 23 23 23 24 24 23 23 24 25 25 25 26 27 28 29 31 33 36 38 40 40 40 40 39 38 38 38 37 36 36 34 33 31 30 29 29 27 26 24 24 24 24 23 22 22 21 20 20 19 19 18 18 18 19 19 19 18
29 29 28 27 26 25 25 25 24 24 24 23 23 23 23 24 24 24 24 25 26 26 26 26 27 29 30 31 33 36 38 39 40 40 40 39 38 38 37 37 36 36 35 34 32 31 30 29 28 26 25 24 24 24 24 23 23 21 21 20 19 19 18 18 18 19 19 19 19
29 28 28 27 26 25 24 24 24 24 24 24 23 23 24 24 25 25 25 26 26 27 27 27 28 29 31 32 33 35 37 39 40 40 40 39 38 38 37 36 36 36 35 34 33 32 31 29 28 27 26 25 24 24 24 23 23 22 21 21 20 19 18 17 17 18 18 18 18
28 28 28 28 28 27 26 25 24 24 24 24 23 23 24 25 26 26 26 26 27 27 28 28 28 29 31 32 34 35 37 38 39 40 40 39 38 37 37 37 36 35 35 35 34 33 31 30 29 28 27 26 25 25 24 23 22 21 21 21 20 19 18 17 17 17 17 17 17
28 28 29 29 29 29 28 26 25 24 24 24 23 24 25 26 26 26 26 26 27 28 29 29 29 29 30 32 34 35 36 37 38 39 39 38 38 37 37 37 36 35 35 35 34 33 32 30 29 28 27 26 26 26 25 23 22 21 21 20 20 19 18 17 17 17 17 16 16
27 28 29 29 29 29 28 27 26 25 24 23 23 24 25 25 26 26 26 27 28 29 29 29 29 29 30 32 33 35 36 36 37 37 38 38 37 36 37 37 37 36 35 34 34 33 32 30 29 28 27 27 27 27 26 24 22 21 21 20 20 19 18 18 17 17 17 17 17
26 27 28 28 29 29 29 28 27 25 24 23 24 25 26 26 27 27 28 28 28 28 28 29 29 30 31 32 33 34 35 35 36 36 37 37 36 36 36 37 37 36 35 34 33 33 32 31 29 28 27 26 26 26 26 25 23 22 21 20 20 19 19 18 18 17 17 18 18
25 26 27 28 29 29 30 29 28 26 25 25 25 26 27 27 28 28 28 27 27 27 28 29 30 31 31 32 33 34 35 35 35 36 36 37 36 35 35 36 36 36 35 34 33 32 32 31 30 28 27 26 25 25 25 26 25 24 23 22 20 19 19 19 19 19 18 19 19
24 25 27 28 29 30 30 30 29 28 28 27 27 27 28 28 28 28 27 27 27 28 29 29 31 31 32 32 33 34 35 35 35 35 36 36 36 35 34 35 35 35 34 33 33 33 32 31 30 29 28 27 26 26 26 26 26 26 24 23 21 20 20 20 20 20 20 20 20
24 25 26 27 28 29 30 30 30 30 29 29 28 28 27 27 28 28 28 27 27 27 29 30 31 31 31 32 33 34 35 35 35 35 35 36 36 35 35 34 35 35 34 33 33 33 32 31 31 30 30 29 28 27 26 26 26 26 25 24 22 21 21 20 20 20 20 20 21
25 25 26 26 27 28 28 29 29 30 29 29 29 28 27 27 27 28 28 28 27 28 29 30 30 31 31 32 33 34 35 35 35 35 35 35 35 36 35 35 36 35 35 34 33 33 33 32 32 32 31 30 29 28 26 26 26 26 26 25 23 23 22 22 21 20 20 20 21
24 24 24 25 26 27 27 27 28 29 29 29 29 28 27 27 28 28 28 28 28 29 30 30 31 31 32 33 33 34 35 35 35 35 35 35 35 35 36 36 36 36 35 35 34 34 34 34 33 33 32 32 30 29 28 27 26 26 26 25 25 24 24 23 22 21 20 20 21
24 24 24 25 25 26 26 27 27 28 28 28 28 28 27 27 28 28 28 29 29 30 30 30 31 32 33 33 34 34 35 35 36 35 35 34 34 35 35 35 35 35 35 35 35 35 34 35 34 34 33 33 31 30 29 28 28 27 26 26 25 25 25 25 24 23 22 21 21
24 24 24 25 25 26 26 26 26 26 27 27 27 27 27 27 27 28 28 30 30 30 29 30 30 31 33 34 35 35 35 35 35 35 34 34 34 34 35 35 35 35 35 35 35 36 35 35 35 35 34 34 33 32 31 30 29 28 28 27 26 26 26 26 25 24 23 23 23
22 23 24 24 25 25 25 26 26 26 26 26 27 27 26 26 27 28 29 30 31 31 30 29 29 31 32 34 35 35 35 35 35 34 34 34 33 34 34 34 34 35 35 35 36 36 36 36 36 35 35 34 34 33 32 30 30 29 29 29 28 28 27 26 25 25 24 24 24
21 22 23 24 25 26 26 26 26 26 27 27 27 27 26 26 27 28 29 30 31 30 30 30 30 30 31 32 34 34 34 33 33 33 33 33 32 32 33 33 34 35 36 36 36 36 36 36 36 36 35 35 34 33 32 31 30 31 31 31 30 29 28 27 26 25 24 24 24
21 22 23 25 26 27 28 27 27 27 28 29 29 28 27 27 28 29 30 30 30 30 30 31 31 31 30 31 32 32 32 31 32 32 32 32 32 32 32 33 34 36 37 37 37 36 36 36 36 36 35 35 34 33 32 32 31 31 31 31 31 31 30 29 27 25 24 24 24
23 24 25 26 28 29 30 30 29 29 30 31 31 31 30 30 30 31 31 31 31 31 31 32 31 31 30 30 30 30 30 30 31 32 32 32 32 32 33 34 35 37 38 38 37 37 36 36 36 35 35 34 34 33 33 32 32 32 32 32 32 31 31 30 28 26 25 24 24
25 26 27 28 29 30 31 31 31 31 32 33 33 33 33 33 33 33 32 32 32 32 31 30 30 29 30 30 29 29 29 30 32 32 33 33 33 33 34 35 36 37 38 38 37 37 36 36 35 35 34 34 34 33 33 32 32 32 31 31 31 32 31 31 30 28 27 26 26
26 27 28 29 30 31 32 33 33 33 33 33 34 34 34 34 34 33 33 32 31 30 29 29 28 28 28 28 28 28 29 30 31 32 33 33 33 34 35 36 37 37 37 38 37 37 36 35 35 34 34 34 34 33 33 32 32 31 31 31 31 31 31 31 31 30 30 29 28
28 28 28 29 30 31 32 33 33 32 32 32 32 32 32 31 31 32 32 31 30 28 27 28 28 28 27 27 28 29 29 29 31 32 33 34 35 36 37 37 37 37 37 37 37 36 36 35 34 34 34 34 34 34 33 32 31 31 31 30 30 30 30 30 30 30 30 30 30
29 28 28 28 28 29 30 30 30 30 30 30 29 28 27 27 28 29 29 29 27 27 27 27 28 28 28 28 28 30 30 29 31 32 33 34 35 36 37 37 37 36 36 36 36 36 36 35 34 34 34 34 34 34 33 32 31 30 29 29 29 29 30 30 30 30 30 30 30
28 27 27 26 26 27 27 27 26 26 26 26 26 25 25 25 25 26 26 26 26 26 26 27 27 28 28 29 30 31 31 30 30 32 34 34 35 35 36 36 36 35 35 35 36 36 36 35 34 34 34 34 33 33 33 32 30 29 28 28 28 28 29 29 30 30 30 30 29
26 26 25 25 25 25 25 24 24 23 23 23 24 24 24 24 24 24 24 25 25 26 26 26 26 27 29 30 31 31 31 31 31 31 32 33 33 34 34 34 34 34 34 35 36 36 36 35 34 34 34 33 33 32 31 31 29 28 28 27 27 27 27 28 29 30 29 29 28
25 24 24 23 24 24 24 24 24 23 23 23 23 23 23 23 23 23 23 24 25 25 26 26 26 27 28 29 30 30 31 31 31 31 31 31 31 32 32 32 33 33 34 34 35 36 36 35 34 33 33 32 32 31 29 29 28 28 28 27 27 26 25 26 27 28 28 28 27
25 24 23 22 22 22 22 23 24 24 24 23 23 23 23 22 22 22 23 24 24 25 25 26 27 27 27 28 28 28 29 30 30 30 30 30 30 30 31 31 32 32 33 34 34 34 34 33 32 31 31 31 30 29 28 27 27 28 27 27 26 26 25 24 24 25 26 26 26
24 24 24 23 22 21 22 22 23 23 23 23 22 22 22 22 22 22 22 23 24 24 25 26 26 26 25 25 26 27 28 28 28 29 30 30 30 30 30 30 31 32 34 34 34 33 32 31 29 28 28 29 29 28 27 26 26 27 27 26 26 25 25 25 24 23 23 24 24
24 23 23 23 22 22 23 22 21 21 22 22 22 22 22 22 22 22 23 23 24 24 24 25 25 24 23 23 24 26 27 27 27 27 28 29 30 30 30 30 30 32 34 35 34 33 32 31 29 27 27 27 27 27 27 25 25 25 25 25 25 24 24 24 23 22 21 21 21
24 23 22 22 23 23 23 22 22 21 21 21 21 21 21 22 22 23 23 24 24 24 23 23 23 22 22 23 24 25 26 27 27 27 27 28 29 30 31 30 30 32 34 35 34 33 31 30 29 28 27 26 26 25 25 23 23 22 22 22 22 22 22 22 21 20 19 19 19
24 23 23 23 23 23 23 23 22 22 21 20 20 21 21 22 23 24 24 24 24 24 23 23 22 22 23 23 23 24 25 26 27 27 27 27 28 29 30 30 30 31 33 34 33 32 31 30 29 29 28 26 25 23 22 21 20 19 19 19 19 20 20 20 20 19 19 18 18
25 24 24 23 23 23 23 23 22 21 21 20 20 21 22 23 24 24 25 24 24 24 24 23 23 23 23 23 23 23 24 26 26 27 27 27 28 28 29 29 30 31 33 33 33 32 31 30 29 29 29 28 25 23 21 20 19 18 18 18 18 19 19 19 20 20 19 19 19
24 24 24 24 24 24 24 23 22 21 21 21 21 22 23 24 25 25 25 25 24 24 24 23 24 24 24 24 23 24 24 25 26 27 27 27 27 28 28 29 30 32 33 33 32 31 30 29 29 29 29 29 27 24 22 21 20 19 19 19 19 20 20 20 20 20 20 20 19
23 23 23 23 24 24 24 23 22 21 21 21 22 22 23 24 24 24 24 24 24 24 24 24 24 24 24 24 24 24 24 25 26 26 27 27 27 27 27 28 29 31 33 33 32 31 30 29 29 29 29 28 27 25 23 21 20 20 19 20 20 20 20 21 20 20 20 20 19
22 22 23 23 24 24 23 22 22 21 21 22 22 23 24 24 23 23 23 23 23 23 24 24 24 24 24 24 24 24 24 24 24 25 26 26 27 27 27 27 28 30 32 33 32 30 29 29 28 28 28 28 26 25 23 22 21 21 20 20 20 20 21 21 21 21 21 20 20
21 21 22 23 23 23 22 22 21 21 21 22 22 23 23 23 24 24 23 23 22 22 22 23 23 23 23 23 23 23 24 23 24 24 25 26 26 27 27 28 28 30 31 32 31 30 29 28 28 28 27 27 25 24 23 22 22 22 22 21 21 21 21 21 21 21 21 21 21
20 21 21 22 22 22 21 21 21 20 21 22 22 23 23 23 23 23 23 22 21 21 21 21 22 22 22 22 23 23 24 24 24 24 25 25 26 27 27 27 28 29 30 31 30 29 29 28 28 27 27 25 23 22 22 22 22 22 22 22 22 22 21 21 21 22 22 22 21
19 20 21 21 21 21 21 20 20 20 21 22 22 22 22 22 21 21 21 20 20 20 21 21 21 22 22 23 23 23 24 24 24 24 24 25 26 27 27 27 28 29 30 30 30 29 28 28 28 27 26 25 22 21 21 21 21 21 21 22 22 22 21 20 20 21 21 22 23
19 20 21 21 21 21 20 20 20 20 21 21 21 21 21 20 20 20 20 20 20 20 21 21 21 22 22 22 22 23 23 23 24 24 24 25 26 26 26 26 27 29 30 30 29 28 28 28 27 27 26 24 22 21 20 20 20 20 20 20 20 20 20 19 19 19 20 21 22
19 20 21 21 21 21 20 20 20 20 21 20 20 20 19 19 19 19 19 20 20 20 21 21 21 22 22 22 22 22 23 23 24 24 24 25 25 26 26 26 27 29 30 30 29 28 27 27 27 27 26 24 22 21 20 19 19 19 19 19 19 19 19 19 18 18 19 19 20
18 19 20 21 21 20 20 19 19 20 19 19 19 19 18 18 18 18 18 18 19 20 20 21 21 21 21 21 21 22 22 23 23 24 24 25 25 25 26 26 27 28 29 29 29 28 27 27 27 27 26 24 22 21 20 19 19 19 19 19 18 18 17 17 17 17 17 18 18
18 18 19 20 20 20 19 19 19 19 18 18 18 18 18 17 17 17 17 17 18 19 19 19 20 20 20 20 20 21 21 22 23 23 24 24 24 24 25 25 26 27 28 28 28 28 27 27 27 27 26 24 23 21 20 19 19 19 19 19 18 17 16 16 16 16 17 17 17
Wind_Direction
232 232 232 232 232 231 231 232 231 231 230 228 227 225 223 221 221 221 221 220 220 220 221 220 220 220 220 219 219 219 218 218 217 216 215 214 214 215 215 215 215 214 213 212 211 212 213 214 214 215 216 217 217 218 218 218 218 218 219 220 222 224 225 227 230 232 233 235 237
232 232 232 232 232 233 233 233 233 231 230 229 228 227 226 223 222 222 222 222 221 221 221 221 221 221 220 220 220 220 220 219 218 217 216 215 215 215 214 214 214 214 213 212 211 211 212 213 213 213 215 217 217 218 219 220 219 219 219 220 222 224 226 228 231 233 235 236 237
232 232 231 231 231 231 231 232 231 231 230 230 229 229 227 226 224 224 224 223 223 222 221 221 222 222 221 220 220 220 220 220 219 217 216 215 214 214 214 213 213 213 213 212 212 212 212 213 212 213 214 216 217 218 218 220 220 219 220 221 222 224 226 229 231 233 235 236 237
233 231 231 230 230 229 230 231 231 230 229 229 229 229 228 227 226 225 225 225 224 223 222 222 222 222 221 220 220 220 220 220 219 218 216 215 214 213 213 213 212 212 212 212 212 212 213 212 212 213 215 216 218 218 218 219 219 219 220 222 223 224 226 229 230 232 233 235 235
234 233 231 231 231 230 231 231 231 230 229 229 228 228 227 227 226 226 225 225 225 224 223 223 222 222 221 221 220 219 219 219 219 217 215 214 213 213 213 213 212 212 212 212 213 213 212 212 212 213 215 218 219 219 220 219 218 219 220 223 224 225 226 228 229 230 232 233 234
235 234 234 233 233 232 232 232 232 231 230 229 228 227 227 226 226 225 225 225 225 225 224 223 222 222 221 220 219 219 218 217 217 216 215 213 213 213 212 212 212 212 212 212 212 212 212 211 212 214 217 219 220 221 221 220 218 219 221 222 224 224 225 227 228 229 230 231 232
237 236 236 235 234 234 233 233 233 232 232 231 229 228 227 227 226 226 226 226 227 226 224 223 222 221 220 219 218 217 216 216 215 215 214 213 212 212 212 212 212 212 212 211 211 211 211 211 212 214 217 219 220 221 221 219 218 219 221 222 224 224 225 225 227 228 230 231 232
240 239 238 237 236 235 234 234 233 233 232 232 231 230 230 229 228 228 228 227 227 226 224 223 222 221 220 219 218 217 216 215 214 214 214 213 211 211 211 211 211 211 211 211 210 210 210 211 212 215 217 218 219 219 220 220 219 220 221 222 224 225 225 226 227 228 230 232 232
240 240 240 239 238 237 236 235 234 233 233 233 234 234 233 232 231 230 229 228 228 227 226 224 223 222 221 220 219 217 216 215 214 214 213 212 211 210 210 210 210 210 210 210 210 210 210 211 213 215 217 217 218 219 220 220 220 221 222 223 224 225 226 227 228 229 231 233 233
240 240 240 240 239 238 237 236 235 234 234 235 236 236 235 234 233 232 231 230 230 229 227 226 224 222 221 221 220 219 217 216 215 214 214 213 211 210 209 209 208 208 208 209 209 210 210 211 214 216 218 218 218 219 220 220 221 222 223 224 225 226 226 227 228 229 232 234 235
238 239 240 240 240 239 238 237 236 236 236 236 237 238 237 236 235 234 233 232 231 230 229 228 225 223 222 221 221 220 219 218 217 215 214 213 212 210 209 209 208 208 207 208 208 208 209 212 215 217 218 219 219 219 220 221 221 222 223 225 226 226 227 228 228 229 231 234 236
236 237 238 239 240 239 238 237 237 237 237 237 238 238 238 237 236 235 234 233 232 232 232 230 227 225 223 222 222 221 220 219 217 216 215 214 212 210 209 209 208 208 207 207 207 208 209 212 215 217 218 219 219 220 221 221 221 222 223 225 226 227 228 229 229 229 231 233 236
234 233 234 236 237 237 236 236 236 237 237 238 238 239 239 239 238 236 235 234 233 233 233 231 229 227 225 224 223 221 220 219 218 216 215 213 212 210 209 209 208 208 207 207 208 208 210 213 216 217 217 218 220 221 222 221 221 222 222 224 225 227 228 229 230 230 231 233 236
234 232 232 232 233 234 234 234 235 237 237 238 239 239 239 239 238 237 235 235 234 233 232 231 230 228 226 225 224 222 221 220 218 216 215 213 211 210 208 208 208 207 207 207 208 210 212 214 216 217 217 218 220 222 222 222 222 222 223 224 225 227 229 230 231 231 232 234 237
236 234 232 231 231 231 232 232 234 236 237 238 239 239 239 239 238 237 236 235 234 233 232 231 229 228 227 225 224 223 222 220 218 216 214 212 211 209 208 207 207 207 207 208 209 212 214 216 217 217 218 220 221 222 223 223 223 224 225 226 227 228 230 231 232 232 233 235 238
239 236 234 232 231 230 230 230 233 235 237 238 239 239 238 239 239 238 236 235 234 232 231 229 228 228 226 225 224 223 221 219 217 215 213 212 210 208 207 206 206 207 208 209 211 213 215 217 218 219 220 221 222 223 223 223 224 226 227 229 230 230 231 232 232 233 235 237 239
240 238 236 234 232 231 230 229 230 233 235 237 238 237 236 237 238 238 236 235 233 231 229 228 228 227 225 224 222 221 219 218 216 215 213 211 209 208 207 206 207 208 210 211 212 214 215 216 218 219 221 222 223 223 224 224 225 227 229 230 232 233 233 234 233 234 236 238 240
241 239 237 236 235 234 232 231 230 231 233 235 235 235 235 236 237 237 236 234 232 230 228 228 227 225 223 222 220 218 217 216 215 214 213 212 210 209 208 208 209 211 212 213 214 214 215 216 218 219 221 222 223 224 224 225 226 228 230 231 233 234 235 236 235 236 237 238 241
242 240 238 237 237 237 236 235 233 232 232 233 233 233 233 234 235 234 233 232 231 230 229 227 226 224 222 220 218 217 216 216 215 214 213 212 211 210 209 210 211 212 213 214 214 215 216 216 217 219 220 221 223 224 225 225 227 229 230 232 234 236 237 238 239 239 239 240 242
245 242 240 239 240 240 239 239 238 236 234 232 231 230 230 231 231 229 228 228 229 229 228 227 225 223 221 219 218 216 216 216 215 215 214 212 211 211 211 212 212 213 213 214 214 215 215 216 217 218 219 221 222 223 224 225 227 229 230 232 234 236 238 240 242 243 244 244 245
249 247 246 245 244 243 243 243 243 241 240 237 234 231 230 229 227 226 226 227 228 228 227 226 224 222 220 218 216 216 215 216 215 214 214 213 212 213 213 213 212 212 213 214 214 214 214 215 216 218 220 221 223 224 224 225 226 228 230 232 234 237 239 241 243 245 247 248 248
255 253 251 249 248 246 246 245 245 245 244 242 240 237 234 231 228 227 227 227 227 226 225 224 223 221 220 218 216 216 215 215 215 214 214 214 214 214 213 212 211 211 212 213 213 214 214 215 216 218 220 221 223 224 225 225 226 227 229 232 234 237 240 242 244 246 248 250 251
259 258 255 253 251 248 246 245 245 245 245 244 243 240 237 234 232 231 229 227 226 225 224 223 223 222 221 219 218 217 216 215 214 214 214 214 214 213 212 211 210 210 210 212 213 213 213 214 216 218 220 221 223 224 225 226 226 227 229 231 234 237 240 243 245 247 249 252 253
262 261 258 256 253 250 247 245 244 243 243 243 241 240 238 236 234 232 229 227 225 224 223 223 223 222 221 221 220 218 216 215 214 214 214 213 212 211 210 209 209 210 210 212 213 214 214 214 215 217 219 221 223 224 225 225 226 227 228 230 232 236 239 243 246 248 250 252 253
264 262 260 258 256 253 250 247 245 243 242 241 240 239 237 235 233 231 229 227 225 224 223 223 222 222 221 220 220 219 217 215 214 213 212 212 211 210 209 209 209 210 211 212 213 215 215 215 216 217 218 220 221 222 224 225 226 227 229 230 232 234 238 241 245 248 250 251 251
266 263 261 259 257 255 252 250 247 245 244 243 241 239 236 234 231 229 228 226 225 224 223 222 222 221 221 220 219 218 217 216 215 214 212 211 210 209 208 208 209 210 211 212 214 215 216 216 216 217 217 218 219 219 221 223 226 228 229 231 232 234 236 239 241 245 249 251 251
268 265 262 260 257 255 253 251 250 247 245 243 240 238 235 232 230 228 227 226 225 223 222 221 221 220 220 219 218 217 216 215 215 215 214 212 210 208 208 209 210 211 212 213 214 215 215 215 214 214 216 218 218 218 219 222 225 228 229 231 232 234 236 238 240 242 244 248 250
270 268 266 263 259 255 254 252 250 247 245 242 240 237 235 232 229 228 227 226 224 222 221 220 219 219 219 219 218 216 215 215 215 215 214 213 212 210 209 210 211 212 214 215 215 215 214 213 211 211 212 216 218 220 220 222 225 227 229 231 233 235 236 238 239 240 241 242 245
272 271 268 264 261 258 256 253 250 247 245 243 240 237 234 231 229 227 226 225 222 220 218 218 218 217 217 218 217 217 216 215 215 215 214 213 213 212 211 211 212 214 216 217 216 215 213 212 210 209 209 214 217 220 221 222 224 226 227 230 231 233 234 236 237 237 237 238 239
274 271 269 266 263 261 258 254 252 249 246 243 239 236 233 231 228 227 225 223 221 220 218 218 217 216 216 217 217 216 216 215 215 215 214 213 213 213 212 212 213 215 216 217 216 215 213 212 210 209 208 210 215 218 220 220 221 222 223 226 228 229 230 231 232 233 234 236 238
276 273 270 268 265 262 260 257 254 250 246 242 238 234 232 229 227 226 224 223 222 221 220 219 217 217 217 217 217 216 215 215 214 214 214 214 214 213 213 213 214 215 216 217 216 215 213 212 211 210 209 209 211 214 218 220 220 220 222 224 226 227 229 231 232 233 233 235 237
279 275 271 268 266 264 261 259 255 250 245 241 237 234 232 230 229 228 227 225 224 222 220 218 218 218 218 218 217 216 216 215 214 214 214 214 214 214 214 214 215 216 217 217 216 215 213 212 211 211 210 210 210 213 217 219 221 223 224 226 228 229 229 229 232 233 234 235 236
281 276 272 269 266 264 262 258 253 249 244 240 236 234 232 231 231 229 228 226 224 222 220 218 217 217 217 217 217 217 216 216 215 215 215 215 215 214 214 214 215 217 218 217 216 215 213 212 211 211 211 212 213 214 216 219 222 224 226 228 230 230 230 230 232 234 235 236 238
283 278 273 270 267 265 261 257 252 247 242 238 236 234 233 231 230 228 227 225 224 222 221 220 219 219 219 219 218 218 218 217 216 216 215 215 215 215 214 214 215 217 218 218 216 214 213 212 211 212 212 213 215 216 218 220 223 226 228 230 231 231 231 232 234 235 237 239 241
285 279 274 271 268 265 261 256 251 246 241 238 236 235 233 232 230 228 227 225 224 223 222 222 222 222 222 221 221 220 219 219 218 217 216 215 215 215 214 215 216 217 218 217 216 214 213 212 211 212 212 213 215 217 219 222 225 228 230 231 233 233 234 235 236 238 240 241 243
287 280 275 272 269 265 260 255 250 245 241 238 236 235 233 232 231 230 228 226 224 223 223 223 222 222 222 222 222 222 221 220 220 218 217 215 214 215 215 215 216 217 217 217 216 214 213 212 211 211 212 212 214 217 220 223 226 229 231 233 234 235 236 238 239 241 242 243 243
289 282 276 272 268 264 259 254 249 244 240 238 237 235 234 232 231 230 228 224 223 222 222 222 222 222 222 222 222 222 222 221 220 219 218 216 215 215 215 215 216 216 217 217 216 214 212 211 212 211 211 212 213 215 218 222 226 229 232 234 236 237 238 239 241 242 243 244 245
291 285 279 273 268 264 259 253 247 243 241 240 238 237 234 232 230 228 226 223 221 222 223 223 223 223 222 222 223 223 223 221 220 220 219 217 216 214 214 215 216 216 217 217 215 214 212 212 212 211 210 211 212 215 218 221 225 228 231 233 236 237 238 239 240 242 243 245 245
292 286 280 274 268 263 258 252 247 244 243 242 240 237 234 231 229 228 225 222 222 223 224 225 224 224 223 223 223 224 223 222 221 220 220 218 217 215 214 214 215 217 217 217 215 213 212 212 212 211 210 210 212 214 217 220 224 227 229 232 234 236 237 238 240 242 244 244 245
293 286 280 274 268 263 258 253 249 246 245 243 240 237 233 230 229 228 225 223 223 224 226 227 226 225 224 223 224 224 224 223 221 220 220 219 217 215 214 214 216 217 218 217 215 213 212 212 212 211 210 210 211 213 216 219 223 225 228 230 232 234 236 238 239 241 243 245 245
295 286 279 274 268 263 258 254 251 249 246 243 239 237 235 232 230 227 225 223 223 224 225 227 228 227 225 224 224 224 224 223 221 220 219 219 217 216 215 214 216 217 218 218 216 214 213 212 212 211 210 209 210 213 215 218 222 224 226 228 229 232 235 237 238 240 241 243 245
Height
760 760 761 761 761 761 762 762 762 763 763 764 764 764 764 765 766 767 767 768 769 769 770 771 772 773 774 775 775 776 777 779 780 781 782 783 784 784 785 787 789 790 792 794 796 798 799 800 802 803 804 804 805 806 807 808 809 810 811 811 812 813 813 814 814 815 816 816 816
758 758 759 759 760 760 760 760 761 761 762 762 762 762 763 763 764 764 765 765 766 766 767 768 769 770 771 772 773 773 774 776 777 779 780 781 782 782 783 784 786 788 789 792 794 795 796 798 799 800 801 802 803 804 805 805 807 808 808 809 810 810 811 812 812 813 814 814 814
755 756 757 757 757 758 758 758 758 759 759 760 760 761 761 761 761 762 762 763 763 764 765 766 766 767 768 769 770 770 771 773 774 776 777 779 779 780 781 782 784 785 787 789 791 792 794 795 796 798 799 800 801 802 803 803 804 805 806 807 808 809 809 809 810 811 811 812 812
753 753 754 754 754 754 754 755 755 756 757 758 758 759 759 759 759 759 760 761 761 762 762 763 764 764 765 766 767 768 769 769 771 773 774 776 777 778 779 780 782 783 785 786 788 789 791 793 794 795 796 797 798 799 800 801 802 803 804 804 805 806 807 807 808 809 809 809 809
750 750 750 751 751 752 752 753 753 754 754 755 756 756 756 756 756 757 758 759 759 759 759 760 761 762 763 764 764 765 766 767 769 770 771 773 774 775 777 778 779 781 782 784 785 787 789 790 792 793 794 795 796 797 798 799 800 801 802 802 803 804 804 805 806 806 807 807 807
748 748 748 749 749 750 751 751 751 752 753 753 753 753 753 754 754 755 755 756 756 756 757 759 759 760 761 761 762 763 764 765 766 768 769 770 772 773 774 776 777 779 780 782 783 785 786 788 789 790 792 793 794 794 795 797 798 799 799 800 801 801 802 803 803 804 804 804 804
746 746 746 747 748 749 749 749 750 751 751 752 751 751 751 751 752 752 753 754 754 755 756 757 757 758 758 759 760 761 762 763 764 765 766 768 769 771 772 773 775 777 778 779 781 783 784 786 787 789 790 791 792 792 793 794 795 796 797 798 798 799 800 800 801 801 801 802 802
744 744 745 745 746 747 747 748 749 750 750 750 749 749 749 750 750 751 751 752 753 753 754 754 754 755 756 757 758 759 759 761 762 763 764 766 767 769 770 771 773 774 776 777 779 780 782 784 785 786 787 789 789 790 791 792 793 794 794 795 796 797 797 798 798 799 799 799 799
743 743 743 744 744 744 745 746 747 748 748 748 747 748 748 749 749 750 750 751 751 751 752 752 753 754 754 755 756 757 758 759 760 761 762 764 765 766 768 769 771 773 774 775 777 778 779 781 783 784 785 786 787 787 788 789 790 791 792 793 794 794 795 795 796 796 796 797 797
740 740 741 741 742 743 744 744 745 745 746 746 746 747 747 748 749 749 749 749 750 750 750 750 751 752 753 754 754 755 756 757 758 759 760 762 763 764 766 767 768 770 771 773 774 776 777 779 780 781 782 783 784 785 786 787 788 789 789 790 791 792 793 793 794 794 794 794 794
737 738 739 739 740 741 742 743 744 744 744 745 745 746 746 747 747 748 748 749 749 749 749 749 750 751 751 752 752 753 754 755 756 757 759 759 761 762 763 764 765 767 768 769 771 773 774 776 777 779 780 781 782 783 784 785 786 786 787 788 789 789 790 790 791 792 792 792 792
733 734 735 736 737 739 740 741 742 742 743 744 744 744 745 745 745 746 747 748 748 747 747 748 749 749 749 750 751 751 752 753 754 755 756 757 759 760 761 762 763 764 766 767 768 770 771 773 774 776 777 779 780 781 782 783 783 784 784 785 786 787 787 788 789 789 789 790 790
729 730 731 732 733 734 736 738 739 740 741 741 742 743 743 744 744 744 745 745 745 746 746 746 747 747 748 748 749 749 750 751 752 753 754 755 756 758 759 760 761 763 764 764 766 767 769 770 771 773 774 776 777 778 779 780 781 782 782 783 784 784 784 785 786 787 787 788 788
727 727 728 728 729 730 732 734 736 737 738 739 740 741 741 742 742 743 743 743 743 744 744 744 745 745 745 746 746 747 748 749 749 750 751 753 754 755 756 758 759 760 762 763 764 765 766 767 769 770 772 773 774 776 777 778 778 779 779 780 781 781 782 783 783 784 785 785 785
727 727 726 726 727 728 729 730 732 734 735 736 737 738 739 740 740 740 740 740 740 741 742 742 742 742 743 744 744 745 746 746 747 748 749 750 751 752 754 755 757 758 759 761 762 763 764 765 766 768 769 771 772 773 774 775 776 776 777 778 778 779 779 780 781 782 782 783 783
728 727 726 726 725 725 725 727 729 730 732 733 734 735 736 737 738 738 738 738 738 738 739 739 739 740 740 741 742 743 744 745 745 746 747 748 749 750 752 753 754 756 757 758 759 761 762 763 764 766 767 768 769 771 772 772 773 774 774 775 775 776 777 778 779 779 780 780 780
726 726 726 725 724 723 722 722 723 725 726 728 729 731 732 733 734 735 735 735 735 735 735 735 736 737 738 739 740 741 742 743 744 744 745 746 748 749 750 751 752 753 754 756 757 758 759 761 762 764 765 766 767 768 769 770 770 771 772 772 773 774 774 775 776 777 778 778 778
724 724 723 723 722 721 719 718 718 719 719 721 723 725 726 727 729 730 731 732 732 732 732 733 733 734 735 736 737 739 740 740 741 742 743 744 745 747 748 749 750 751 752 753 754 755 757 759 760 762 763 764 765 766 767 767 768 769 769 770 771 771 772 773 774 774 775 775 775
721 720 720 719 719 719 718 716 714 713 712 713 715 717 719 720 721 724 726 727 729 729 730 731 731 732 733 734 735 736 737 738 739 739 740 742 743 744 745 746 747 749 750 751 752 753 754 756 758 759 761 762 763 763 764 765 766 766 767 768 769 769 769 770 771 772 772 773 773
719 718 717 716 716 716 716 715 714 712 710 709 709 710 711 713 715 718 720 723 725 727 728 729 730 730 731 731 733 734 734 735 736 737 738 739 740 741 742 744 745 746 747 748 749 751 752 754 755 757 758 759 760 761 762 763 763 764 765 766 766 767 767 768 769 769 769 770 770
718 717 716 715 715 714 715 715 715 715 714 713 711 711 711 711 713 714 717 719 722 724 726 727 728 728 729 729 730 731 732 733 734 735 736 737 738 738 739 741 742 744 745 746 747 749 750 752 753 754 755 756 757 758 759 760 761 762 763 763 764 764 765 765 766 767 767 767 768
717 716 716 716 715 714 714 715 716 717 717 717 716 716 715 715 715 715 716 718 720 722 724 724 725 726 727 727 728 729 729 731 731 732 733 734 735 736 737 739 740 741 742 743 744 746 748 749 750 752 753 754 755 755 756 758 759 759 760 761 762 762 763 763 764 764 764 765 765
716 716 716 716 715 715 715 715 715 716 716 717 717 718 717 717 716 717 717 718 719 720 721 722 723 724 724 725 726 726 727 729 729 730 730 731 733 734 735 737 738 739 740 740 742 744 745 747 748 749 750 751 752 753 754 755 756 758 758 759 759 760 760 761 761 762 762 762 763
715 715 715 715 715 714 714 714 714 714 714 715 715 716 716 716 716 716 717 717 718 719 719 720 721 722 722 723 724 724 725 726 727 728 728 729 731 732 733 734 735 736 737 738 739 741 743 744 746 747 748 749 750 751 752 753 754 755 756 757 757 758 758 759 759 759 760 760 760
714 714 714 714 714 714 714 713 713 713 713 713 713 714 714 714 715 715 715 716 716 717 718 719 719 720 721 721 722 723 724 724 725 726 727 728 729 730 731 732 733 734 735 736 737 739 740 742 743 744 745 747 748 749 750 751 752 753 754 754 755 756 756 757 757 757 757 758 758
713 713 713 713 713 713 712 712 712 711 711 711 712 712 712 713 713 714 714 714 715 715 716 717 718 719 719 720 721 722 723 723 724 724 725 726 728 729 729 730 731 732 733 734 736 737 739 740 741 742 743 744 746 747 748 749 750 751 752 752 753 754 754 754 755 755 755 755 755
712 711 711 711 712 711 711 710 710 710 710 710 710 710 710 711 712 712 712 713 713 714 714 715 716 717 718 719 719 720 721 722 722 723 724 725 726 727 728 728 729 729 730 732 734 736 737 739 740 741 742 742 744 745 746 747 748 749 750 750 751 751 752 752 753 753 753 753 753
711 710 710 710 710 709 709 709 709 709 709 709 709 709 709 709 710 710 710 711 711 712 713 714 714 716 717 717 718 718 719 720 721 722 723 724 724 725 726 726 727 727 728 730 732 734 735 737 739 739 740 741 742 743 744 745 746 747 748 748 749 749 749 750 750 751 751 752 752
710 709 709 709 708 708 708 708 708 707 707 707 708 708 708 708 708 708 708 709 709 710 711 712 713 714 715 715 715 716 717 718 719 720 721 722 723 723 724 724 725 725 726 728 730 732 734 735 737 738 739 739 740 741 742 743 744 745 746 746 746 747 747 748 748 749 749 750 750
709 708 708 707 706 706 706 706 706 706 706 706 706 706 706 706 705 706 706 707 707 708 709 710 711 712 712 712 713 714 715 716 717 718 719 719 720 721 722 722 723 724 724 726 728 730 731 733 734 736 737 738 738 739 740 741 742 743 744 744 744 745 745 746 746 747 747 748 748
707 707 706 705 705 704 704 704 704 704 704 704 704 704 704 703 703 704 704 705 705 706 707 708 709 709 710 710 711 712 713 714 715 716 717 717 718 719 719 720 721 722 723 724 726 728 729 731 732 734 735 736 737 737 738 739 740 741 742 742 742 743 743 744 744 745 745 745 746
705 705 704 704 703 702 702 702 702 702 702 702 702 702 701 701 701 702 703 703 704 705 706 706 707 707 708 709 709 710 711 712 712 713 714 715 716 717 718 719 719 720 721 723 724 726 727 729 730 732 733 734 735 736 736 737 738 739 739 740 740 741 741 742 742 743 743 743 744
704 703 702 701 700 699 699 699 699 699 699 700 700 699 699 700 700 701 701 702 703 703 704 704 704 705 706 707 707 708 709 709 710 711 712 713 714 715 716 717 717 718 719 721 722 724 725 727 728 730 731 732 733 734 735 736 736 737 738 738 738 739 739 739 740 740 740 741 741
702 701 700 699 698 698 697 697 697 697 697 697 697 698 698 698 699 699 699 700 701 701 701 702 702 703 704 704 705 706 707 707 708 709 710 711 712 713 714 714 715 715 717 719 720 722 724 725 726 728 729 730 732 732 733 734 734 735 735 736 736 737 737 737 738 738 738 739 739
700 699 698 697 696 696 696 695 695 695 695 695 695 695 695 696 696 697 697 698 699 699 700 700 701 701 702 703 704 704 705 705 706 707 708 709 710 711 711 712 712 713 715 716 718 720 721 723 724 726 727 729 730 730 731 732 733 733 733 734 734 734 735 735 736 736 736 736 737
698 698 697 695 695 694 694 694 694 693 693 693 693 693 694 694 694 695 696 697 698 698 698 699 699 700 700 701 701 702 703 704 704 705 706 707 708 709 709 710 710 711 713 714 716 718 719 721 723 724 725 727 728 729 729 730 730 731 731 732 732 732 733 733 734 734 734 734 734
696 695 695 694 693 692 692 692 692 691 691 690 690 691 691 692 693 693 694 695 696 696 696 697 697 698 698 699 699 700 700 701 702 703 704 705 705 706 707 708 709 709 711 713 714 716 718 719 720 722 723 724 725 726 727 728 729 729 729 730 730 730 731 731 732 732 732 732 732
694 694 693 692 691 690 690 690 689 689 689 689 689 689 689 690 691 691 692 693 693 694 694 694 695 695 695 696 697 698 698 699 700 701 702 703 703 704 705 706 707 708 709 710 712 714 716 717 719 720 721 723 724 724 725 726 727 727 727 728 728 729 729 729 730 730 729 729 729
693 692 691 690 689 689 688 688 687 687 687 687 687 687 688 688 689 689 690 690 691 691 692 692 692 693 694 694 695 696 696 697 698 699 699 700 701 702 703 704 704 705 707 709 710 712 714 715 717 718 719 720 721 723 724 724 724 725 725 726 726 727 727 728 728 728 728 727 727
691 690 689 688 687 687 686 686 685 685 685 685 685 685 686 686 686 687 688 689 689 689 690 690 690 691 692 693 694 694 694 695 696 697 698 698 699 700 701 702 703 704 705 706 708 710 712 713 715 716 718 719 720 721 722 722 723 723 724 724 724 725 725 725 725 725 725 725 725
690 689 687 686 685 685 684 684 684 684 684 684 684 684 684 684 685 685 686 686 687 688 688 689 689 690 690 691 692 692 693 693 694 695 696 697 698 699 699 700 701 702 703 704 706 708 709 711 713 714 715 716 718 719 720 720 721 721 721 722 722 723 723 724 724 724 724 723 723